Weather History for North Bend, OR

Change the Weather History Date:

Monday, December 17, 2012

  Actual Average Record
Temperature  
Mean Temperature 46 °F 45 °F  
Max Temperature 54 °F 51 °F 67 °F (1979)
Min Temperature 37 °F 39 °F 18 °F (1924)
Degree Days  
Heating Degree Days 19 20  
Month to date heating degree days 288 333  
Since 1 July heating degree days 1574 1785  
Cooling Degree Days 0 0  
Month to date cooling degree days 0 0  
Year to date cooling degree days 1 2  
Moisture  
Dew Point 39 °F    
Average Humidity 80    
Maximum Humidity 100    
Minimum Humidity 53    
Precipitation  
Precipitation 0.06 in 0.36 in 1.77 in (1941)
Month to date precipitation 4.85 6.20  
Year to date precipitation 48.35 59.98  
Sea Level Pressure  
Sea Level Pressure 29.92 in    
Wind  
Wind Speed 18 mph (WSW)    
Max Wind Speed 36 mph    
Max Gust Speed 53 mph    
Visibility 10 miles    
Events      
T = Trace of Precipitation, MM = Missing Value Source: NWS Daily Summary

Daily Weather History Graph

Daily Weather History Graph

Search for Another Location

Airport:

Trip Planner

Search our weather history database for the weather conditions in past years. The results will help you decide how hot, cold, wet, or windy it might be!

Date:

Astronomy

Dec. 17, 2012 Rise Set
Actual Time 7:44 AM PST 4:42 PM PST
Civil Twilight 7:11 AM PST 5:15 PM PST
Nautical Twilight 6:35 AM PST 5:51 PM PST
Astronomical Twilight 6:00 AM PST 6:26 PM PST
Moon 10:48 AM PST (12/17) 10:18 PM PST (12/17)
Length of Visible Light 10h 03m
Length of Day
8h 57m
Waxing Crescent, 26% of the Moon is Illuminated
Dec 17
Waxing Crescent
Dec 19
First Quarter
Dec 28
Full
Jan 4
Last Quarter
Jan 11
New

Hourly Weather History & Observations

Time (PST) Temp. Windchill Dew Point Humidity Pressure Visibility Wind Dir Wind Speed Gust Speed Precip Events Conditions
12:15 AM 51.8 °F - 44.6 °F 76% 29.56 in 9.0 mi WSW 33.4 mph 42.6 mph N/A   Overcast
12:35 AM 50.0 °F - 44.6 °F 82% 29.58 in 10.0 mi West 35.7 mph 44.9 mph N/A   Overcast
12:55 AM 51.8 °F - 44.6 °F 76% 29.60 in 10.0 mi West 34.5 mph 52.9 mph N/A   Overcast
1:15 AM 50.0 °F - 44.6 °F 82% 29.61 in 10.0 mi West 29.9 mph 39.1 mph N/A   Overcast
1:35 AM 50.0 °F - 44.6 °F 82% 29.63 in 10.0 mi West 33.4 mph 41.4 mph N/A   Overcast
1:55 AM 48.2 °F - 44.6 °F 87% 29.65 in 8.0 mi West 23.0 mph 43.7 mph N/A   Overcast
2:15 AM 50.0 °F - 44.6 °F 82% 29.66 in 10.0 mi West 33.4 mph 41.4 mph N/A   Overcast
2:35 AM 48.2 °F - 44.6 °F 87% 29.68 in 10.0 mi West 29.9 mph 38.0 mph N/A   Overcast
2:55 AM 48.2 °F - 42.8 °F 82% 29.69 in 10.0 mi West 26.5 mph 35.7 mph N/A   Overcast
3:15 AM 48.2 °F - 42.8 °F 82% 29.71 in 10.0 mi West 20.7 mph 34.5 mph N/A   Overcast
3:35 AM 48.2 °F - 42.8 °F 82% 29.73 in 10.0 mi WNW 28.8 mph 34.5 mph N/A   Overcast
3:55 AM 48.2 °F - 41.0 °F 76% 29.74 in 10.0 mi West 31.1 mph 43.7 mph N/A   Overcast
4:15 AM 46.4 °F 38.1 °F 42.8 °F 87% 29.76 in 10.0 mi West 24.2 mph 31.1 mph N/A   Overcast
4:35 AM 46.4 °F 38.3 °F 39.2 °F 76% 29.76 in 10.0 mi West 23.0 mph 34.5 mph N/A   Mostly Cloudy
4:55 AM 48.2 °F - 41.0 °F 76% 29.77 in 10.0 mi West 21.9 mph 31.1 mph N/A   Overcast
5:15 AM 48.2 °F - 42.8 °F 82% 29.78 in 10.0 mi West 24.2 mph 32.2 mph N/A   Overcast
5:35 AM 48.2 °F - 37.4 °F 66% 29.79 in 10.0 mi West 27.6 mph 35.7 mph N/A   Overcast
5:55 AM 48.2 °F - 39.2 °F 71% 29.81 in 10.0 mi West 26.5 mph 32.2 mph N/A   Mostly Cloudy
6:15 AM 48.2 °F - 39.2 °F 71% 29.82 in 10.0 mi West 27.6 mph 32.2 mph N/A   Overcast
6:35 AM 48.2 °F - 37.4 °F 66% 29.84 in 10.0 mi West 27.6 mph 32.2 mph N/A   Mostly Cloudy
6:55 AM 46.4 °F 38.1 °F 37.4 °F 71% 29.85 in 10.0 mi West 24.2 mph 28.8 mph N/A   Mostly Cloudy
7:15 AM 48.2 °F - 37.4 °F 66% 29.86 in 10.0 mi West 21.9 mph 27.6 mph N/A   Mostly Cloudy
7:35 AM 48.2 °F - 37.4 °F 66% 29.87 in 10.0 mi West 17.3 mph - N/A   Overcast
7:55 AM 44.6 °F 37.4 °F 39.2 °F 81% 29.89 in 7.0 mi WNW 16.1 mph 35.7 mph N/A   Overcast
8:15 AM 44.6 °F 34.4 °F 39.2 °F 81% 29.90 in 5.0 mi West 32.2 mph 44.9 mph N/A   Mostly Cloudy
8:35 AM 44.6 °F 37.4 °F 39.2 °F 81% 29.92 in 10.0 mi West 16.1 mph - N/A   Mostly Cloudy
8:55 AM 44.6 °F 38.1 °F 39.2 °F 81% 29.93 in 10.0 mi West 13.8 mph - N/A   Mostly Cloudy
9:15 AM 44.6 °F 38.1 °F 37.4 °F 76% 29.95 in 7.0 mi WNW 13.8 mph - N/A   Overcast
9:35 AM 46.4 °F 39.8 °F 39.2 °F 76% 29.95 in 10.0 mi West 16.1 mph 24.2 mph N/A   Overcast
9:55 AM 46.4 °F 36.4 °F 37.4 °F 71% 29.96 in 10.0 mi West 35.7 mph 40.3 mph N/A   Mostly Cloudy
10:15 AM 44.6 °F 33.8 °F 39.2 °F 81% 30.00 in 10.0 mi West 36.8 mph - N/A   Overcast
10:35 AM 42.8 °F 38.0 °F 37.4 °F 81% 30.00 in 10.0 mi WSW 8.1 mph - 0.01 in   Mostly Cloudy
10:55 AM 46.4 °F 42.4 °F 39.2 °F 76% 30.00 in 10.0 mi WSW 8.1 mph - 0.01 in   Scattered Clouds
11:15 AM 46.4 °F 38.3 °F 39.2 °F 76% 30.00 in 10.0 mi West 23.0 mph 28.8 mph N/A   Mostly Cloudy
11:35 AM 48.2 °F - 37.4 °F 66% 30.01 in 10.0 mi West 19.6 mph 25.3 mph N/A   Partly Cloudy
11:55 AM 48.2 °F - 37.4 °F 66% 30.01 in 10.0 mi West 19.6 mph 27.6 mph N/A   Scattered Clouds
12:15 PM 48.2 °F - 37.4 °F 66% 30.02 in 10.0 mi West 21.9 mph 26.5 mph N/A   Mostly Cloudy
12:35 PM 48.2 °F - 35.6 °F 62% 30.02 in 10.0 mi West 19.6 mph 24.2 mph N/A   Scattered Clouds
12:55 PM 48.2 °F - 35.6 °F 62% 30.02 in 10.0 mi West 18.4 mph - N/A   Mostly Cloudy
1:15 PM 48.2 °F - 35.6 °F 62% 30.01 in 10.0 mi WNW 16.1 mph 23.0 mph N/A   Overcast
1:35 PM 48.2 °F - 35.6 °F 62% 30.01 in 10.0 mi WNW 18.4 mph 24.2 mph N/A   Mostly Cloudy
1:55 PM 48.2 °F - 33.8 °F 58% 30.01 in 10.0 mi WNW 12.7 mph 23.0 mph N/A   Mostly Cloudy
4:35 PM 46.4 °F - 35.6 °F 66% 30.03 in 10.0 mi Calm Calm - N/A   Overcast
4:55 PM 46.4 °F 42.9 °F 33.8 °F 62% 30.03 in 10.0 mi West 6.9 mph - N/A   Overcast
5:15 PM 44.6 °F 38.4 °F 33.8 °F 66% 30.03 in 10.0 mi WSW 12.7 mph 16.1 mph N/A   Overcast
5:35 PM 44.6 °F 43.1 °F 33.8 °F 66% 30.03 in 10.0 mi South 3.5 mph - N/A   Overcast
5:55 PM 42.8 °F 40.1 °F 37.4 °F 81% 30.03 in 10.0 mi South 4.6 mph - N/A   Overcast
6:15 PM 44.6 °F 35.3 °F 37.4 °F 76% 30.04 in 10.0 mi West 26.5 mph 31.1 mph N/A   Overcast
6:35 PM 41.0 °F 33.9 °F 37.4 °F 87% 30.06 in 9.0 mi West 12.7 mph - 0.01 in   Overcast
6:55 PM 39.2 °F 35.0 °F 37.4 °F 93% 30.06 in 10.0 mi South 5.8 mph - 0.02 in   Overcast
7:15 PM 39.2 °F 35.0 °F 37.4 °F 93% 30.06 in 10.0 mi SSE 5.8 mph - N/A   Overcast
7:35 PM 39.2 °F 32.5 °F 37.4 °F 93% 30.06 in 10.0 mi SE 10.4 mph - N/A   Overcast
7:55 PM 39.2 °F 33.0 °F 39.2 °F 100% 30.05 in 10.0 mi SE 9.2 mph - N/A   Overcast
8:15 PM 39.2 °F 37.0 °F 39.2 °F 100% 30.07 in 7.0 mi SSE 3.5 mph - N/A   Overcast
8:35 PM 39.2 °F 33.6 °F 37.4 °F 93% 30.07 in 10.0 mi SSE 8.1 mph - 0.01 in   Mostly Cloudy
8:55 PM 39.2 °F 33.0 °F 37.4 °F 93% 30.07 in 10.0 mi SE 9.2 mph - 0.01 in   Overcast
9:15 PM 37.4 °F 31.4 °F 35.6 °F 93% 30.07 in 10.0 mi SE 8.1 mph 16.1 mph N/A   Overcast
9:35 PM 37.4 °F 31.4 °F 37.4 °F 100% 30.08 in 8.0 mi SE 8.1 mph - 0.01 in   Overcast
9:55 PM 37.4 °F 30.8 °F 37.4 °F 100% 30.08 in 10.0 mi SE 9.2 mph - 0.01 in   Mostly Cloudy
10:15 PM 37.4 °F 30.8 °F 37.4 °F 100% 30.08 in 10.0 mi SE 9.2 mph - 0.01 in   Overcast
10:35 PM 37.4 °F 30.8 °F 37.4 °F 100% 30.07 in 10.0 mi SSE 9.2 mph - 0.01 in   Scattered Clouds
10:55 PM 37.4 °F 30.3 °F 37.4 °F 100% 30.07 in 10.0 mi SSE 10.4 mph - 0.01 in   Scattered Clouds
11:15 PM 37.4 °F 31.4 °F 37.4 °F 100% 30.07 in 10.0 mi SE 8.1 mph - N/A   Mostly Cloudy
11:35 PM 37.4 °F - 37.4 °F 100% 30.09 in 10.0 mi Calm Calm - N/A   Mostly Cloudy
11:55 PM 37.4 °F 32.8 °F 37.4 °F 100% 30.08 in 10.0 mi SE 5.8 mph - N/A   Overcast